Location: Ústí nad Labem
(50.6611°N, 14.0531°E)
Time: 18:30:30
(UTC+02:00)

S-56A Canister/Altair - Pass Details

Date: 08 May 2025
Orbit: 633 x 2485 km, 38.9° (Epoch: 12 May)

Event Time Altitude Azimuth Distance (km) Brightness Sun altitude
Rises 22:47:35 0° 256° (WSW) 3,116 10.9 -16.0°
Reaches altitude 10° 22:51:01 10° 228° (SW) 2,395 10.0 -16.3°
Maximum altitude 22:53:40 14° 200° (SSW) 2,335 9.6 -16.5°
Enters shadow 22:54:12 13° 194° (SSW) 2,384 9.6 -16.6°
